Location: Ash Shall?l al Awwal
(24.0167°N, 32.8667°E)
Time: 05:26:35
(UTC+00:00)

Cosmos 1844 Rocket - Pass Details

Date: 02 March 2021
Orbit: 826 x 843 km, 71.0° (Epoch: 12 April)

Event Time Altitude Azimuth Distance (km) Brightness Sun altitude
Rises 17:04:19 0° 0° (N) 3,361 5.8 -17.3°
Reaches altitude 10° 17:07:20 10° 16° (NNE) 2,426 4.9 -18.0°
Enters shadow 17:09:57 19° 43° (NE) 1,859 4.1 -18.6°
